This is the latest recevied weather packets stored in our database for station/object IZ1UQG-N2. If no packets are shown the sender has not sent any weather packets the latest 10 day(s).
| Time | Temp. | Humidity | Pressure | Rain* | Wind** | Luminosity | Snow |
|---|---|---|---|---|---|---|---|
| 1787993985 | 24.44° C | 54% | 1012.9 hPa | 0 mm | - | 584 W/m² | - |
| 1787993924 | 23.89° C | 55% | 1012.7 hPa | 0 mm | - | 584 W/m² | - |
| 1787993864 | 23.89° C | 56% | 1012.9 hPa | 0 mm | - | 582 W/m² | - |
| 1787993804 | 23.89° C | 56% | 1012.9 hPa | 0 mm | - | 580 W/m² | - |
| 1787993746 | 23.89° C | 56% | 1012.9 hPa | 0 mm | - | 575 W/m² | - |
| 1787993684 | 23.33° C | 56% | 1012.8 hPa | 0 mm | - | 575 W/m² | - |
| 1787993626 | 23.33° C | 57% | 1013 hPa | 0 mm | - | 573 W/m² | - |
| 1787993565 | 23.33° C | 58% | 1012.9 hPa | 0 mm | - | 571 W/m² | - |
| 1787993505 | 22.78° C | 57% | 1013 hPa | 0 mm | - | 570 W/m² | - |
| 1787993445 | 22.78° C | 57% | 1012.9 hPa | 0 mm | - | 568 W/m² | - |
| 1787993385 | 22.78° C | 55% | 1013 hPa | 0 mm | - | 564 W/m² | - |
| 1787993324 | 23.33° C | 56% | 1013 hPa | 0 mm | - | 563 W/m² | - |
| 1787993266 | 22.78° C | 55% | 1012.9 hPa | 0 mm | - | 561 W/m² | - |
| 1787993205 | 23.33° C | 55% | 1013 hPa | 0 mm | - | 559 W/m² | - |
| 1787993145 | 22.78° C | 56% | 1012.9 hPa | 0 mm | - | 557 W/m² | - |
| 1787993085 | 22.78° C | 56% | 1013 hPa | 0 mm | - | 556 W/m² | - |
| 1787993025 | 22.78° C | 55% | 1012.9 hPa | 0 mm | - | 552 W/m² | - |
| 1787992965 | 22.78° C | 55% | 1012.9 hPa | 0 mm | - | 550 W/m² | - |
| 1787992905 | 22.78° C | 55% | 1013 hPa | 0 mm | - | 548 W/m² | - |
| 1787992846 | 22.78° C | 57% | 1013 hPa | 0 mm | - | 547 W/m² | - |
| 1787992785 | 22.78° C | 59% | 1012.9 hPa | 0 mm | - | 543 W/m² | - |
| 1787992724 | 22.78° C | 59% | 1013 hPa | 0 mm | - | 541 W/m² | - |
| 1787992664 | 22.22° C | 58% | 1012.9 hPa | 0 mm | - | 540 W/m² | - |
| 1787992604 | 22.22° C | 58% | 1013 hPa | 0 mm | - | 538 W/m² | - |
| 1787992544 | 22.78° C | 58% | 1012.9 hPa | 0 mm | - | 534 W/m² | - |
* Rain latest hour (hover to see other rain measurements)
** Current wind speed in m/s (hover to see current wind gust speed)